[[{"header":{"parameterUnit":"m.s-1","parameterCategory":1,"la1":30.2991,"la2":30.254,"lo1":-89.0895,"lo2":-89.0444,"dy":0.0017,"dx":0.0017,"nx":28,"ny":28,"refTime":"2025-01-29T09:00:00:Z","depth":0,"parameterNumber":2,"parameterNumberName":"U-component_of_WINDS"},"data":[0,0,0,0,0,0,0,0,0,0,0,0,0,0,0,0,0,0,0,0,0,0,0,0,0,0,0,0,0,0,0,0,0,0,0,0,0,0,0,0,0,0,0,0,0,0,0,0,0,0,0,0,0,0,0,0,0,0,-4.2277,-4.2279,0,-4.2501,-4.2503,-4.2506,-4.2561,-4.256,-4.2559,-4.2557,-4.2791,-4.2798,-4.2806,0,0,0,0,0,0,0,0,0,0,0,0,0,-4.1902,-4.1908,-4.2276,-4.2279,-4.2282,-4.25,-4.2503,-4.2506,-4.2562,-4.256,-4.2558,-4.2556,-4.2789,-4.2797,-4.2807,0,0,0,0,0,0,0,0,0,0,0,0,0,-4.2089,-4.1911,-4.2276,-4.2336,-4.2343,-4.25,-4.2503,-4.2507,-4.2562,-4.256,-4.2558,-4.2556,-4.2786,-4.2797,-4.2808,-4.2922,0,0,-4.2843,-4.2847,0,0,0,0,0,0,0,0,-4.2078,-4.2103,-4.2324,-4.2332,-4.2341,-4.2501,-4.2457,-4.2646,-4.2563,-4.2479,-4.2557,-4.2555,-4.2697,-4.2715,-4.2762,-4.2933,-4.2943,-4.2844,-4.285,-4.2855,-4.2859,0,0,0,0,0,0,0,-4.2065,-4.2094,-4.2365,-4.2327,-4.2338,-4.2353,-4.2377,-4.2493,-4.2598,-4.2486,-4.2491,-4.2516,-4.2701,-4.2751,-4.2768,-4.2946,-4.2843,-4.2853,-4.286,-4.2865,-4.3222,-4.3225,0,0,0,0,0,0,-4.2041,-4.2082,-4.2358,-4.2372,-4.2201,-4.2362,-4.2389,-4.2452,-4.2596,-4.2616,-4.2518,-4.2518,-4.2733,-4.2755,-4.2776,-4.2919,-4.2855,-4.2866,-4.2872,-4.322,-4.3223,-4.3226,0,0,0,0,0,0,-4.2033,-4.2065,-4.2349,-4.2229,-4.2266,-4.2371,-4.2441,-4.2457,-4.2507,-4.262,-4.264,-4.255,-4.2732,-4.276,-4.2885,-4.2928,-4.2871,-4.2881,-4.3217,-4.3221,-4.3224,-4.3205,0,0,0,0,0,0,-4.2022,-4.2062,-4.2105,-4.2229,-4.2272,-4.2452,-4.2443,-4.2463,-4.2526,-4.2529,-4.2655,-4.2674,-4.2732,-4.2868,-4.2896,-4.2942,-4.289,-4.3213,-4.3218,-4.3223,-4.3202,-4.3207,-4.3212,0,0,0,0,0,-4.2008,-4.2091,-4.2107,-4.214,-4.2328,-4.2455,-4.2479,-4.2543,-4.253,-4.2574,-4.2647,-4.267,-4.2919,-4.288,-4.2913,-4.2963,-4.3211,-4.3217,-4.3223,-4.3199,-4.3206,-4.3212,0,0,0,0,0,0,-4.1971,-4.2109,-4.2127,-4.2253,-4.2341,-4.2464,-4.2522,-4.2548,-4.2644,-4.2642,-4.2719,-4.2747,-4.2866,-4.2928,-4.2882,-4.3081,-4.3065,-4.3078,-4.3036,-4.3044,-4.3048,-4.303,-4.29,0,0,0,0,0,-4.1977,-4.2067,-4.2183,-4.2283,-4.2326,-4.2416,-4.2474,-4.2516,-4.2611,-4.2649,-4.2731,-4.2824,-4.2924,-4.2987,-4.3085,-4.3212,-4.324,-4.3263,-4.3268,-4.3272,-4.3281,-4.3353,-4.3364,-4.3246,-4.3246,-4.3245,0,0,-4.1991,-4.2078,-4.213,-4.2278,-4.2351,-4.2444,-4.2448,-4.2546,-4.2616,-4.2665,-4.2786,-4.285,-4.296,-4.3085,-4.3145,-4.314,-4.3321,-4.3279,-4.3281,-4.3289,-4.336,-4.3371,-4.3381,-4.325,-4.3249,-4.3248,0,0,-4.2063,-4.2138,-4.2228,-4.2302,-4.2413,-4.2472,-4.2494,-4.2613,-4.2657,-4.278,-4.2819,-4.2905,-4.3074,-4.315,-4.3211,-4.3314,-4.3338,-4.3344,-4.337,-4.3439,-4.3448,-4.3457,-4.3493,-4.3505,-4.3354,-4.3354,-4.3354,0,-4.2067,-4.2206,-4.2272,-4.2368,-4.2432,-4.248,-4.2573,-4.2642,-4.278,-4.2824,-4.2816,-4.303,-4.3107,-4.3251,-4.3276,-4.3325,-4.3352,-4.3329,-4.3441,-4.3451,-4.346,-4.3495,-4.3508,-4.3353,-4.3353,-4.3353,-4.3353,0,-4.2205,-4.2301,-4.2361,-4.2491,-4.2563,-4.2657,-4.2738,-4.2803,-4.2839,-4.29,-4.3026,-4.312,-4.3238,-4.3276,-4.3313,-4.3426,-4.3419,-4.3426,-4.3411,-4.347,-4.3504,-4.3518,-4.3353,-4.3353,-4.3353,-4.3353,0,0,-4.2257,-4.2423,-4.2444,-4.2503,-4.263,-4.2707,-4.2804,-4.2918,-4.2971,-4.3066,-4.3149,-4.3292,-4.3299,-4.3368,-4.3415,-4.3475,-4.355,-4.3475,-4.3479,-4.3484,-4.3681,-4.3673,-4.3688,-4.3568,-4.3571,-4.3573,-4.3671,0,-4.2344,-4.2516,-4.2579,-4.2722,-4.2812,-4.286,-4.2945,-4.3033,-4.3093,-4.318,-4.3248,-4.3347,-4.3349,-4.3391,-4.3453,-4.3527,-4.359,-4.3522,-4.3647,-4.3651,-4.3616,-4.3706,-4.3699,-4.3786,-4.3685,-4.3687,-4.3689,0,-4.2467,-4.2561,-4.2712,-4.2827,-4.2868,-4.2942,-4.3052,-4.3134,-4.3236,-4.3275,-4.3353,-4.3395,-4.35,-4.348,-4.3627,-4.3579,-4.3635,-4.3679,-4.3684,-4.3697,-4.3672,-4.3719,-4.3816,-4.3828,-4.3711,-4.3709,-4.3707,0,-4.2489,-4.2654,-4.2765,-4.2815,-4.2953,-4.3004,-4.3064,-4.3164,-4.3228,-4.3325,-4.3368,-4.3476,-4.3535,-4.3619,-4.369,-4.3669,-4.383,-4.3816,-4.3866,-4.3865,-4.3896,-4.3893,-4.4001,-4.3935,-4.3935,-4.3935,-4.3934,0,-4.2578,-4.2668,-4.2776,-4.2844,-4.2947,-4.302,-4.3121,-4.3185,-4.3273,-4.3356,-4.3406,-4.3483,-4.3573,-4.3662,-4.3719,-4.3832,-4.3859,-4.3894,-4.3908,-4.3889,-4.3884,-4.3925,-4.392,-4.3938,-4.3937,-4.3937,-4.3936,0,-4.2618,-4.2694,-4.2819,-4.2939,-4.2972,-4.3042,-4.3146,-4.3216,-4.3278,-4.3383,-4.3412,-4.3511,-4.3619,-4.3699,-4.3839,-4.3877,-4.3997,-4.4012,-4.3962,-4.3968,-4.4014,-4.4007,-4.415,-4.4172,-4.4092,-4.4093,-4.4094,0,-4.2669,-4.2739,-4.2867,-4.2925,-4.2984,-4.3078,-4.3143,-4.3219,-4.3286,-4.3407,-4.3462,-4.3573,-4.3665,-4.3836,-4.3922,-4.4029,-4.4046,-4.4089,-4.4063,-4.4041,-4.4046,-4.404,-4.4047,-4.4092,-4.4092,-4.4093,-4.4093,0,-4.275,-4.2784,-4.2876,-4.2981,-4.3058,-4.3145,-4.3233,-4.3278,-4.337,-4.3443,-4.3553,-4.3624,-4.3767,-4.3877,-4.3993,-4.4058,-4.4091,-4.4101,-4.4118,-4.4098,-4.4065,-4.4083,-4.397,-4.4097,-4.4096,-4.4096,-4.4096,-4.4096,-4.2797,-4.2861,-4.2961,-4.3061,-4.3135,-4.3217,-4.3287,-4.3359,-4.3451,-4.3571,-4.3612,-4.3725,-4.3827,-4.3986,-4.4052,-4.4144,-4.4143,-4.4168,-4.4174,-4.4179,-4.4177,-4.4052,-4.4166,-4.4166,-4.4166,-4.4166,-4.4166,0,-4.2879,-4.2946,-4.3038,-4.3158,-4.3238,-4.3262,-4.3361,-4.3426,-4.3525,-4.3616,-4.3706,-4.3833,-4.394,-4.4034,-4.4146,-4.4201,-4.4219,-4.4228,-4.4224,-4.4238,-4.4171,-4.4145,-4.4211,-4.4211,-4.4211,-4.4211,-4.4211,-4.4211,-4.2931,-4.3041,-4.3088,-4.3236,-4.3303,-4.3412,-4.3467,-4.3543,-4.3616,-4.3754,-4.3843,-4.3903,-4.3997,-4.4116,-4.4216,-4.4241,-4.428,-4.4284,-4.4313,-4.4248,-4.4243,-4.4237,-4.4212,-4.4292,-4.4292,-4.4372,-4.4373,-4.4373]},{"header":{"parameterUnit":"m.s-1","parameterCategory":1,"la1":30.2991,"la2":30.254,"lo1":-89.0895,"lo2":-89.0444,"dy":0.0017,"dx":0.0017,"nx":28,"ny":28,"refTime":"2025-01-29T09:00:00:Z","depth":0,"parameterNumber":3,"parameterNumberName":"V-component_of_WINDS"},"data":[0,0,0,0,0,0,0,0,0,0,0,0,0,0,0,0,0,0,0,0,0,0,0,0,0,0,0,0,0,0,0,0,0,0,0,0,0,0,0,0,0,0,0,0,0,0,0,0,0,0,0,0,0,0,0,0,0,0,4.0053,4.0054,0,4.0167,4.0169,4.017,4.0203,4.0203,4.0202,4.0202,4.0317,4.0321,4.0324,0,0,0,0,0,0,0,0,0,0,0,0,0,3.9865,3.9869,4.0053,4.0055,4.0056,4.0167,4.0169,4.017,4.0204,4.0203,4.0202,4.0201,4.0316,4.032,4.0325,0,0,0,0,0,0,0,0,0,0,0,0,0,3.996,3.987,4.0053,4.0086,4.009,4.0167,4.0169,4.0171,4.0204,4.0203,4.0202,4.0201,4.0315,4.032,4.0325,4.0377,0,0,4.0342,4.0344,0,0,0,0,0,0,0,0,3.9954,3.9967,4.008,4.0084,4.0089,4.017,4.0145,4.024,4.0204,4.0161,4.0202,4.0201,4.0269,4.0278,4.0301,4.0382,4.0387,4.0342,4.0346,4.0348,4.0349,0,0,0,0,0,0,0,3.9948,3.9962,4.0098,4.0081,4.0087,4.0096,4.0108,4.0163,4.0218,4.0164,4.0167,4.018,4.0271,4.0296,4.0304,4.0389,4.0342,4.0347,4.035,4.0352,4.0522,4.0523,0,0,0,0,0,0,3.9936,3.9956,4.0095,4.0102,4.0018,4.01,4.0114,4.0145,4.0218,4.0228,4.0181,4.0181,4.0287,4.0298,4.0308,4.0377,4.0348,4.0353,4.0356,4.0521,4.0522,4.0523,0,0,0,0,0,0,3.9931,3.9948,4.009,4.003,4.0049,4.0104,4.0139,4.0148,4.0173,4.023,4.024,4.0196,4.0287,4.0301,4.0361,4.0381,4.0355,4.036,4.0519,4.0521,4.0523,4.0511,0,0,0,0,0,0,3.9926,3.9946,3.9965,4.003,4.0052,4.014,4.014,4.0151,4.0182,4.0184,4.0247,4.0257,4.0287,4.0352,4.0366,4.0388,4.0365,4.0518,4.052,4.0522,4.051,4.0512,4.0515,0,0,0,0,0,3.9919,3.9956,3.9966,3.9983,4.0077,4.0141,4.0153,4.0188,4.0183,4.0204,4.0242,4.0255,4.0376,4.0358,4.0374,4.0398,4.0516,4.0519,4.0522,4.0509,4.0512,4.0514,0,0,0,0,0,0,3.9891,3.9965,3.9977,4.0036,4.0082,4.0146,4.0173,4.0189,4.0237,4.0236,4.0277,4.0291,4.0349,4.0379,4.0357,4.0454,4.0447,4.0453,4.0432,4.0435,4.0437,4.0429,4.0369,0,0,0,0,0,3.9892,3.9938,4.0,4.0046,4.0069,4.0117,4.0146,4.0169,4.0218,4.0237,4.0279,4.0326,4.0375,4.0406,4.0455,4.0514,4.053,4.0539,4.0541,4.0543,4.0548,4.0586,4.0591,4.0532,4.0532,4.0532,0,0,3.9894,3.994,3.9966,4.0042,4.008,4.0127,4.0133,4.0181,4.0217,4.0244,4.0305,4.0337,4.0392,4.0453,4.0482,4.048,4.0568,4.0546,4.0547,4.0552,4.0589,4.0594,4.0599,4.0534,4.0534,4.0534,0,0,3.9923,3.9961,4.0006,4.0045,4.0103,4.0136,4.0147,4.0209,4.0233,4.0294,4.0316,4.0359,4.0442,4.0482,4.0513,4.056,4.0575,4.0574,4.0586,4.0623,4.0627,4.0632,4.0651,4.0658,4.0579,4.0579,4.0579,0,3.9918,3.9989,4.0026,4.0075,4.0109,4.0138,4.0184,4.022,4.0291,4.0314,4.0311,4.0419,4.0457,4.053,4.0542,4.0565,4.058,4.0568,4.0624,4.0628,4.0633,4.0652,4.0659,4.0579,4.0579,4.0579,4.0579,0,3.9982,4.0032,4.0061,4.0131,4.0168,4.0215,4.026,4.0293,4.0314,4.0347,4.0411,4.0459,4.0519,4.0538,4.0557,4.0614,4.0612,4.0615,4.061,4.0638,4.0657,4.0664,4.0579,4.0579,4.0579,4.0579,0,0,3.9994,4.0087,4.0097,4.0131,4.0199,4.0239,4.0288,4.0348,4.0377,4.0426,4.047,4.0541,4.0547,4.0582,4.0607,4.0638,4.0677,4.0639,4.0641,4.0646,4.0746,4.0744,4.0752,4.0687,4.0688,4.0689,4.0742,0,4.0033,4.0123,4.016,4.0234,4.0282,4.0311,4.0355,4.0402,4.0435,4.0482,4.0518,4.0569,4.0571,4.0593,4.0625,4.0665,4.0697,4.0661,4.073,4.0731,4.0717,4.0761,4.0759,4.0806,4.075,4.0751,4.0752,0,4.009,4.0141,4.022,4.0287,4.0308,4.0347,4.0407,4.045,4.0505,4.0527,4.0569,4.0592,4.0647,4.0638,4.0715,4.069,4.072,4.0744,4.0747,4.0756,4.0744,4.0773,4.0822,4.083,4.0763,4.0762,4.0761,0,4.0094,4.0183,4.0243,4.027,4.0348,4.0376,4.0409,4.0464,4.0499,4.0551,4.0575,4.0632,4.0664,4.0709,4.0749,4.0737,4.0824,4.0816,4.0845,4.0844,4.0862,4.0861,4.0919,4.0878,4.0878,4.0878,4.0878,0,4.0134,4.0182,4.0247,4.0283,4.0339,4.0381,4.0435,4.0471,4.052,4.0565,4.0593,4.0635,4.0684,4.0733,4.0764,4.0825,4.0838,4.0859,4.0867,4.0858,4.0856,4.0879,4.0878,4.088,4.088,4.0879,4.0879,0,4.0148,4.0193,4.0261,4.033,4.0349,4.0387,4.0447,4.0485,4.0521,4.0578,4.0594,4.065,4.0709,4.0753,4.0828,4.085,4.0916,4.0923,4.0898,4.0902,4.093,4.0927,4.1006,4.1019,4.0968,4.0968,4.0969,0,4.0172,4.021,4.0284,4.0318,4.0352,4.0404,4.0441,4.0485,4.0522,4.0591,4.0621,4.0683,4.0734,4.0828,4.0875,4.0935,4.0945,4.0968,4.0954,4.0944,4.0948,4.0947,4.0952,4.097,4.0971,4.0971,4.0971,0,4.0209,4.0231,4.0283,4.0345,4.0388,4.0438,4.0489,4.0514,4.0568,4.0609,4.0671,4.0711,4.0791,4.0852,4.0917,4.0953,4.0972,4.0976,4.0986,4.0978,4.0963,4.0974,4.0906,4.0974,4.0973,4.0973,4.0973,4.0973,4.0231,4.0267,4.0327,4.0385,4.0429,4.0476,4.0517,4.0559,4.0611,4.068,4.0703,4.0768,4.0826,4.0915,4.0952,4.1004,4.1003,4.1017,4.1021,4.1025,4.1026,4.0953,4.1015,4.1015,4.1015,4.1015,4.1015,0,4.0272,4.0313,4.0366,4.0438,4.0485,4.05,4.0557,4.0596,4.0653,4.0705,4.0757,4.083,4.0891,4.0945,4.1009,4.104,4.1051,4.1056,4.1055,4.1063,4.1021,4.1007,4.1046,4.1046,4.1046,4.1046,4.1046,4.1046,4.0299,4.0363,4.0392,4.0479,4.052,4.0585,4.0617,4.0662,4.0705,4.0786,4.0837,4.0872,4.0926,4.0995,4.1052,4.1067,4.109,4.1093,4.111,4.1069,4.1066,4.1062,4.105,4.1097,4.1097,4.1148,4.1149,4.1149]}]]